Location: Cheching
(60.0667°N, 164.2167°W)
Time: 12:29:01
(UTC+00:00)

FENGYUN 1C DEB - Pass Details

Date: 01 October 2021
Orbit: 727 x 819 km, 99.4° (Epoch: 17 October)

Event Time Altitude Azimuth Distance (km) Brightness Sun altitude
Exits shadow 14:13:07 23° 299° (WNW) 1,555 ? -21.1°
Drops below altitude 10° 14:15:43 10° 326° (NW) 2,280 ? -20.9°
Sets 14:18:21 0° 338° (NNW) 3,224 ? -20.6°
